Weather History for Roosevelt Roads, PR

Change the Weather History Date:

Friday, January 3, 2014

  Actual Average Record
Temperature  
Mean Temperature 78 °F -  
Max Temperature 82 °F 81 °F 84 °F (1998)
Min Temperature 75 °F 70 °F 66 °F (2012)
Cooling Degree Days 14    
Growing Degree Days 28 (Base 50)    
Moisture  
Dew Point 72 °F    
Average Humidity 78    
Maximum Humidity 94    
Minimum Humidity 67    
Precipitation  
Precipitation 0.00 in - - ()
Sea Level Pressure  
Sea Level Pressure 30.04 in    
Wind  
Wind Speed 7 mph (East)    
Max Wind Speed 12 mph    
Max Gust Speed 16 mph    
Visibility 10 miles    
Events Rain    
Averages and records for this station are not official NWS values.
T = Trace of Precipitation, MM = Missing Value Source: NWS Daily Summary

Daily Weather History Graph

Daily Weather History Graph

Search for Another Location

Airport:

Trip Planner

Search our weather history database for the weather conditions in past years. The results will help you decide how hot, cold, wet, or windy it might be!

Date:

Astronomy

Jan. 03, 2014 Rise Set
Actual Time 6:55 AM AST 5:59 PM AST
Civil Twilight 6:31 AM AST 6:22 PM AST
Nautical Twilight 6:04 AM AST 6:49 PM AST
Astronomical Twilight 5:37 AM AST 7:16 PM AST
Moon 8:41 AM AST (1/3) 8:36 PM AST (1/3)
Length of Visible Light 11h 51m
Length of Day
11h 04m
Waxing Crescent, 7% of the Moon is Illuminated
Jan 3
Waxing Crescent
Jan 7
First Quarter
Jan 16
Full
Jan 24
Last Quarter
Jan 30
New

Hourly Weather History & Observations

Time (AST) Temp. Heat Index Dew Point Humidity Pressure Visibility Wind Dir Wind Speed Gust Speed Precip Events Conditions
12:53 AM 77.0 °F - 72.0 °F 84% 30.03 in 10.0 mi SE 4.6 mph - 0.00 in   Scattered Clouds
1:53 AM 78.1 °F - 73.0 °F 84% 30.02 in 10.0 mi East 3.5 mph - N/A   Mostly Cloudy
2:50 AM 78.8 °F - 71.6 °F 78% 30.01 in 10.0 mi ESE 11.5 mph - N/A   Scattered Clouds
2:53 AM 78.1 °F - 71.1 °F 79% 30.01 in 10.0 mi East 10.4 mph - N/A   Scattered Clouds
3:37 AM 78.8 °F - 71.6 °F 78% 30.00 in 10.0 mi ESE 8.1 mph - N/A   Mostly Cloudy
3:53 AM 78.1 °F - 70.0 °F 76% 30.00 in 10.0 mi SE 6.9 mph - N/A   Mostly Cloudy
4:50 AM 78.8 °F - 69.8 °F 74% 30.00 in 10.0 mi ESE 6.9 mph - N/A   Mostly Cloudy
4:53 AM 78.1 °F - 70.0 °F 76% 30.01 in 10.0 mi ESE 8.1 mph - N/A   Mostly Cloudy
5:53 AM 78.1 °F - 70.0 °F 76% 30.02 in 10.0 mi SE 6.9 mph - N/A   Mostly Cloudy
6:53 AM 78.1 °F - 70.0 °F 76% 30.04 in 10.0 mi ESE 4.6 mph - N/A   Overcast
7:18 AM 78.8 °F - 71.6 °F 78% 30.05 in 10.0 mi East 6.9 mph - N/A   Mostly Cloudy
7:53 AM 80.1 °F 83.6 °F 71.1 °F 74% 30.06 in 10.0 mi East 8.1 mph 16.1 mph N/A   Mostly Cloudy
8:53 AM 82.0 °F 86.3 °F 71.1 °F 69% 30.09 in 10.0 mi East 9.2 mph - N/A   Partly Cloudy
9:53 AM 82.9 °F 87.5 °F 71.1 °F 67% 30.09 in 10.0 mi East 8.1 mph - N/A   Partly Cloudy
10:53 AM 82.0 °F 86.7 °F 72.0 °F 71% 30.08 in 10.0 mi ENE 6.9 mph - N/A   Partly Cloudy
11:53 AM 81.0 °F 84.9 °F 71.1 °F 72% 30.06 in 10.0 mi East 6.9 mph - N/A   Mostly Cloudy
12:16 PM 80.6 °F 83.9 °F 69.8 °F 70% 30.05 in 10.0 mi East 8.1 mph - N/A   Overcast
12:53 PM 82.0 °F 86.3 °F 71.1 °F 69% 30.04 in 10.0 mi ENE 6.9 mph - N/A   Overcast
1:53 PM 82.9 °F 88.8 °F 73.0 °F 72% 30.02 in 10.0 mi NE 9.2 mph - N/A   Partly Cloudy
2:53 PM 79.0 °F - 73.9 °F 84% 30.01 in 10.0 mi NNE 6.9 mph - 0.00 in   Overcast
3:02 PM 78.8 °F - 75.2 °F 89% 30.01 in 10.0 mi NE 5.8 mph - N/A   Overcast
3:13 PM 80.6 °F 84.6 °F 71.6 °F 74% 30.01 in 10.0 mi ENE 8.1 mph - N/A   Overcast
3:53 PM 82.0 °F 87.4 °F 73.0 °F 74% 30.01 in 10.0 mi ENE 5.8 mph - N/A   Mostly Cloudy
4:53 PM 80.1 °F 84.2 °F 73.0 °F 79% 30.02 in 10.0 mi NE 8.1 mph - N/A   Overcast
5:53 PM 77.0 °F - 73.9 °F 90% 30.02 in 9.0 mi NNE 9.2 mph - 0.00 in Rain Light Rain
6:53 PM 75.9 °F - 73.9 °F 94% 30.03 in 10.0 mi Variable 6.9 mph - 0.00 in   Scattered Clouds
7:07 PM 78.8 °F - 75.2 °F 89% 30.03 in 10.0 mi ENE 8.1 mph - N/A   Mostly Cloudy
7:53 PM 79.0 °F - 73.9 °F 84% 30.05 in 10.0 mi ENE 6.9 mph - N/A   Mostly Cloudy
8:53 PM 79.0 °F - 73.0 °F 82% 30.07 in 10.0 mi East 8.1 mph - N/A   Partly Cloudy
9:53 PM 79.0 °F - 73.0 °F 82% 30.08 in 10.0 mi East 6.9 mph - N/A   Clear
10:53 PM 79.0 °F - 72.0 °F 79% 30.08 in 10.0 mi East 5.8 mph - N/A   Partly Cloudy
11:53 PM 78.1 °F - 72.0 °F 81% 30.08 in 10.0 mi ENE 4.6 mph - N/A   Clear